This demonstration page uses our WeatherBlox Daily Observations layout. Learn more.

Left ArrowRight Arrow

40.92501, -98.34201

Hourly Observations for May 28, 2020

Temp ( °F °C ) Dew Point ( °F °C ) Humidity (%) Winds ( mph kmh ) Pressure ( in mb ) Visibility ( mi km ) Precip ( " mm )
12:53 am 00:53 Clear 60 15.6 54 12.2 80 80 NW 6 9 29.97 1015 10 16 0.00 0.00
1:53 am 01:53 Clear 59 15 53 11.7 81 81 WNW 5 7 29.97 1015 10 16 0.00 0.00
2:53 am 02:53 Clear 59 15 52 11.1 78 78 WNW 7 11 29.97 1015 10 16 0.00 0.00
3:53 am 03:53 Clear 58 14.4 52 11.1 81 81 WNW 8 13 29.98 1015 10 16 0.00 0.00
4:53 am 04:53 Clear 58 14.4 52 11.1 81 81 WNW 7 11 29.98 1015 10 16 0.00 0.00
5:53 am 05:53 Clear 60 15.6 51 10.6 72 72 NNW 16 26 30.00 1016 10 16 0.00 0.00
6:53 am 06:53 Sunny 61 16.1 53 11.7 75 75 NNW 15 24 30.02 1017 10 16 0.00 0.00
7:53 am 07:53 Sunny 66 18.9 54 12.2 65 65 N 24 39 30.04 1017 10 16 0.00 0.00
8:53 am 08:53 Mostly Cloudy with Light Rain 70 21.1 53 11.7 55 55 N 26 43 30.04 1017 10 16 0.00 0.00
9:53 am 09:53 Mostly Cloudy 70 21.1 53 11.7 55 55 N 21 33 30.06 1018 10 16 0.00 0.00
10:53 am 10:53 Partly Cloudy 72 22.2 52 11.1 50 50 NNE 23 37 30.07 1018 10 16 0.00 0.00
11:53 am 11:53 Sunny 75 23.9 54 12.2 48 48 N 18 30 30.09 1019 10 16 0.00 0.00
12:53 pm 12:53 Sunny 78 25.6 54 12.2 43 43 N 20 31 30.08 1019 10 16 0.00 0.00
1:53 pm 13:53 Sunny 80 26.7 49 9.4 34 34 N 20 31 30.08 1019 10 16 0.00 0.00
2:53 pm 14:53 Sunny 80 26.7 49 9.4 34 34 N 18 30 30.08 1019 10 16 0.00 0.00
3:53 pm 15:53 Sunny 81 27.2 49 9.4 33 33 N 17 28 30.08 1019 10 16 0.00 0.00
4:53 pm 16:53 Sunny 80 26.7 47 8.3 31 31 N 17 28 30.08 1019 10 16 0.00 0.00
5:53 pm 17:53 Mostly Sunny 79 26.1 49 9.4 35 35 N 17 28 30.09 1019 10 16 0.00 0.00
6:53 pm 18:53 Mostly Sunny 75 23.9 45 7.2 34 34 N 17 28 30.11 1020 10 16 0.00 0.00
7:53 pm 19:53 Sunny 70 21.1 45 7.2 41 41 N 16 26 30.13 1020 10 16 0.00 0.00
8:53 pm 20:53 Sunny 64 17.8 43 6.1 46 46 N 9 15 30.15 1021 10 16 0.00 0.00
9:53 pm 21:53 Clear 61 16.1 43 6.1 52 52 NW 8 13 30.17 1022 10 16 0.00 0.00
10:53 pm 22:53 Clear 60 15.6 41 5 50 50 NNW 9 15 30.19 1022 10 16 0.00 0.00
11:53 pm 23:53 Clear 56 13.3 44 6.7 65 65 NW 8 13 30.19 1022 10 16 0.00 0.00

Powered by AerisWeather